Regional Weather Roundup
Issued by NWS Wakefield, VA

Current Version | Previous Version | Text Only | Print | Product List | Glossary On
Versions: 1 2 3 4 5 6 7 8 9 10 11 12 13 14 15 16 17 18 19 20 21 22 23 24 25 26 27 28 29 30 31 32 33 34 35 36 37 38 39 40 41 42 43 44 45 46 47 48 49 50
000
ASUS41 KAKQ 281710
RWRAKQ

REGIONAL WEATHER ROUNDUP
NATIONAL WEATHER SERVICE WAKEFIELD VA
1200 PM EST SAT FEB 28 2015

Note: "fair" indicates few or no clouds below 12,000 feet with no
significant weather and/or obstructions to visibility. * = Denotes
station may not report precipitation (e.g., rain,snow,etc.),
thunder or fog.

VAZ042-051-052>054-056-281800-
NORTHERN VIRGINIA

CITY           SKY/WX    TMP DP  RH WIND       PRES   REMARKS
WASH NATIONAL  PTSUNNY   28   3  34 E5        30.86F
DULLES         PTSUNNY   24  -5  27 CALM      30.83F
FORT BELVOIR   MOSUNNY   27   0  32 W5        30.85F
QUANTICO       MOSUNNY   26   4  38 E6        30.87F
FREDERICKSBRG* PTSUNNY   28   3  33 SE5       30.85F
STAFFORD*      PTSUNNY   26  -3  29 NE3       30.88F
WARRENTON      MOSUNNY   28   6  40 NE5       30.83F
CULPEPER*      MOSUNNY   27   3  36 N5        30.83F
MANASSAS*      SUNNY     25   0  33 CALM      30.85F
LEESBURG*      SUNNY     27   3  36 N6        30.84F
WINCHESTER     SUNNY     28  -4  24 SW3       30.79F
FRONT ROYAL*   FAIR      23   3  42 CALM      30.79F
LURAY*         FAIR      30   9  40 CALM      30.77F
$$

VAZ048-049-060>072-079>083-281800-
CENTRAL AND SOUTH CENTRAL VIRGINIA

CITY           SKY/WX    TMP DP  RH WIND       PRES   REMARKS
RICHMOND       CLOUDY    30   4  33 NW5       30.83F
CHESTERFIELD*  FAIR      28   1  31 N5        30.84F
PETERSBURG*    PTSUNNY   32   5  32 NE8       30.83S
HANOVER        PTSUNNY   28   4  35 VRB7      30.84F
TAPPAHANNOCK*  PTSUNNY   29   0  29 NE5       30.84F
QUINTON*       FAIR      28   3  34 CALM      30.83F
CHARLOTTSVILLE PTSUNNY   24   3  40 S5        30.80F
GORDONSVILLE*  FAIR      24   2  39 NE5       30.82F
ORANGE*        PTSUNNY   27   5  39 CALM      30.84F
LOUISA*        CLOUDY    27   3  36 N6        30.81S
BUMPASS*       FAIR      26   3  38 N3        30.83S
FARMVILLE*     CLOUDY    34   7  33 CALM      30.81F
CREWE*         FAIR      29   3  33 NE3       30.81S
FORT PICKETT*  FAIR      30   6  36 E3        30.80F
CHASE CITY*    FAIR      31   9  39 CALM      30.79F
CLARKSVILLE*   FAIR      30   7  37 E7        30.79F
SOUTH HILL*    PTSUNNY   29   5  37 NE6       30.85F
LAWRENCEVILLE* FAIR      30   6  37 N7        30.80F
EMPORIA*       PTSUNNY   30   9  40 N3        30.83F
$$

VAZ088>098-281800-
SOUTHEAST VIRGINIA

CITY           SKY/WX    TMP DP  RH WIND       PRES   REMARKS
NORFOLK        MOSUNNY   28  14  55 N13       30.82F WCI  17
VIRGINIA BEACH PTSUNNY   32  15  49 N14       30.81S WCI  22
NORFOLK NAVAL  PTSUNNY   31  16  54 N14       30.84F WCI  21
WEST POINT*    MOSUNNY   32   4  30 N3        30.85F
SALUDA*        FAIR      27  10  49 N7        30.83F
NEWPORT NEWS   MOSUNNY   32  12  43 VRB5      30.83F
LANGLEY AFB    MOSUNNY   28  14  57 NE12      30.83F WCI  18
FORT EUSTIS    MOSUNNY   32  12  44 E6        30.81F
WILLIAMSBURG*  MOSUNNY   36  16  44 E6        30.83F
HR EXEC AP*    FAIR      30  14  51 N9        30.85S
FRANKLIN*      MOSUNNY   32   8  37 NE7       30.83S
WAKEFIELD      MOSUNNY   32   4  30 VRB7      30.83S
$$

VAZ020-022-025-037-045-281800-
WEST CENTRAL AND SOUTHWEST VIRGINIA

CITY           SKY/WX    TMP DP  RH WIND       PRES   REMARKS
STAUNTON*      MOSUNNY   22   4  45 CALM      30.76F
WAYNESBORO*    FAIR      21   6  51 CALM      30.72F
HOT SPRINGS VA MOSUNNY   19   6  58 S7        30.51S
LYNCHBURG      CLOUDY    25   4  40 CALM      30.78F
DANVILLE       PTSUNNY   30   9  41 NE8       30.79F
SOUTH BOSTON*  FAIR      30   6  35 N7        30.80F
MARTINSVILLE   CLOUDY    30  12  47 E3        30.79S
ROANOKE        PTSUNNY   25   9  50 SE7       30.77S
BLACKSBURG     MOSUNNY   25  11  55 E5        30.69F
DUBLIN*        MOSUNNY   28  16  60 CALM      30.67F
MARION*        SUNNY     28  15  59 E8        30.63S
HILLSVILLE*    PTSUNNY   25  15  67 CALM      30.61F
RICHLANDS*     FAIR      34  14  44 S3        30.54F
WISE*          CLOUDY    37  18  44 S3        30.54F
ABINGDON*      MOSUNNY   35  17  49 E12       30.59R
$$

MDZ021>025-VAZ099-100-281800-
SOUTHERN MARYLAND AND THE DELMARVA PENINSULA

CITY           SKY/WX    TMP DP  RH WIND       PRES   REMARKS
PATUXENT RIVER CLOUDY    24   8  50 NE13      30.85F WCI  12
BAY BRIDGE APT NOT AVBL
LEONARDTOWN    PTSUNNY   27   7  43 E6        30.86F
DOVER          PTSUNNY   24   7  46 N8        30.85F
GEORGETOWN     PTSUNNY   40   5  23 NE5       30.84F
EASTON         MOSUNNY   28   7  40 NW3       30.88
CAMBRIDGE      PTSUNNY   28   9  43 NW6       30.85F
SALISBURY      PTSUNNY   29   6  38 CALM      30.83F
OCEAN CITY     MOSUNNY   26  10  50 NE9       30.84F
WALLOPS ISLAND MOSUNNY   26  13  57 E9        30.84F
ACCOMACK*      SUNNY     30   9  40 NE5       30.84S
$$

NCZ012>017-030>032-281800-
NORTH CENTRAL AND EASTERN NORTH CAROLINA

CITY           SKY/WX    TMP DP  RH WIND       PRES   REMARKS
ROANOKE RAPIDS FAIR      32  10  40 NE9       30.80F
RALEIGH        CLOUDY    31  11  43 NE8       30.76F
ELIZABETH CITY PTSUNNY   34  16  47 NE9       30.80F
AHOSKIE*       PTSUNNY   32  10  39 N10       30.81F WCI  23
EDENTON*       MOSUNNY   35  19  51 N9        30.79F
CURRITUCK*     MOSUNNY   32  13  45 NE14      30.82S WCI  22
KILL DEVIL HLS MOSUNNY   33  21  63 N13G21    30.77S WCI  23
MANTEO         MOSUNNY   34  21  60 N17G23    30.78F WCI  23
CAPE HATTERAS  CLOUDY    35  27  72 N14G29    30.73S
TARBORO*       FAIR      32  11  41 N9        30.80F
GOLDSBORO      CLOUDY    36  25  63 N13G20    30.74
WASHINGTON     PTSUNNY   35  18  49 NE8       30.77F
GREENVILLE     MOSUNNY   36  19  51 NE9       30.77F
NEW BERN       MOSUNNY   40  22  48 NE14      30.74F
WILMINGTON     SUNNY     45  26  47 N13       30.68F
$$

VAZ048-281800-
ELSEWHERE

CITY           SKY/WX    TMP DP  RH WIND       PRES   REMARKS
HARRISBURG PA  MOSUNNY   22   0  38 CALM      30.83F
BALTIMORE      PTSUNNY   25  -2  31 VRB3      30.84F
ANNAPOLIS      PTSUNNY   26   1  34 CALM      30.86F
ANDREWS AFB    MOSUNNY   24   0  35 NW5       30.83F
PHILADELPHIA   MOSUNNY   25  -2  31 NW5       30.85F
HENDERSON NC   PTSUNNY   30   5  35 NE9       30.76F
GREENSBORO     PTSUNNY   29  17  61 NE7       30.73S
ROCKY MOUNT    PTSUNNY   33  12  41 N13       30.78F WCI  24
$$

VAZ100-281800-
MARINE

STATION/POSITION TIME  TEMP    WIND        PRES    WAVE   SWELL
                       AIR SEA DIR/SP/G            HT/PER HT/PER
                 (UTC) (F)     (DEG/KT/KT) (MB)    (FT/S) (FT/S)
BRANDYWINE LGT   1700   21 30  330/  6/  9 1044.6S
CAPE MAY NJ      1700   24 32  330/  6/  8 1044.0F
LEWES DE         1700   22 30  350/  7/  8 1044.4F
15NM E FENWICK I 1700   24 35              1043.7F   4/10
OCEAN-CITY-INLET 1700   24 31   10/  8/ 10 1043.9S
WACHAPREAGUE VA  1700   27 32   40/ 11/ 15 1044.0S
THOMAS POINT MD  1700   20 31   50/  7/  8 1045.8F
COVE POINT MD    1700   21      10/  6/  8 1044.8F
SOLOMONS ISLAND  1700      33                N/A
BISHOPS HEAD MD  1700   25 31   20/  5/  7 1044.2S
CAMBRIDGE MD     1700   23 32  320/  3/  4 1044.8F
LEWISETTA VA     1700   25 32   CALM  /  3 1044.4F
RAPPAHANNOCK LGT 1700          360/ 11/ 12 1044.8S
STINGRAY PT      1700   24      20/ 10/ 14   N/A
YORK RVR RNG VA  1700   26      10/ 11/ 12 1043.4F
YORKTOWN VA      1700   28 33   50/  5/  9 1043.9S
DOMINION TERM VA 1700   28      30/  8/ 11 1044.1S
KIPTOPEKE VA     1700      37   70/  3/  6   N/A
CHES BAY BRIDGE  1700   26 33  360/ 12/ 14 1043.7S
CAPE HENRY VA    1700   26     350/ 11/ 13 1042.2F
CHESAPEAKE LGHT  1600   27      10/ 18/ 19 1043.7F
WILLOUBY STN VA  1700   25      30/ 13/ 15 1044.5F
S CRANEY ISL VA  1700           20/ 12/ 14 1044.0R
CAPE HENRY BUOY  1700      35                N/A     5/ 5   2/11
1ST LANDING BUOY 1700   27     360/ 10/ 12 1043.5F
OFFSHORE WE BUOY 1700      37                N/A     5/ 6   3/ 9
64NM E OF VA BCH 1700   37 50  360/ 17/ 21 1041.4R   5/11   3/11
DUCK PIER NC     1700   29 34   10/ 15/ 19 1041.9R
44100 DUCK FRF   1600      37                N/A     6/ 6   2/11
44056 DUCK FRF   1700      34                N/A     6/ 6   2/11
OREGON INLET NC  1700   34 37  360/ 18/ 24 1041.6F
HATTERAS NC      1700   34 39   20/ 25/ 29 1040.6F
CAPE LOOKOUT NC  1700   39      20/ 18/ 22 1039.1F
$$


USA.gov is the U.S. government's official web portal to all federal, state and local government web resources and services.